Return to main menu page
Advertisement


Asterix - Orbit Data

View from orbit pole
View from above orbital plane

View from above satellite
View from above satellite

Ground track

Ground track

The orbit data is extracted from the following two-line orbital elements,

1 01778U 65096A   10210.69959447  .00000122  00000-0  40254-4 0   407
2 01778 034.2541 099.8630 0759006 070.8658 297.2555 13.44984005181845

Epoch (UTC): 4:47:25 PM, Thursday, July 29, 2010
Eccentricity: 0.0759006
Inclination: 034.2541°
Perigee Height: 524 km
Apogee Height: 1,657 km
Right Ascension of Ascending Node: 099.8630°
Argument of Perigee: 070.8658°
Revolutions per Day: 13.44984005
Mean Anomaly at Epoch: 297.2555°
Orbit Number at Epoch: 18184

The dashed part of the orbit path shows where the satellite is in the earth's shadow, and the full part is where it is sunlit.


Developed and maintained by Chris Peat, Heavens-Above GmbH
Please read the updated FAQ before sending e-mail.
GSOC Home Page